Wind_Speed
29 29 30 31 32 33 34 35 36 36 38 39 40 41 42 41 42 41 41 41 40 40 40 41 41 41 40 40 41 40 40 39 38 36 35 34 32 31
30 30 31 32 33 34 34 35 36 38 38 39 40 42 42 42 43 43 41 41 42 41 41 42 42 42 41 41 41 41 40 40 39 37 36 35 34 33
30 31 31 32 33 34 35 36 37 38 39 40 41 42 43 43 43 43 43 43 44 43 43 43 43 42 42 42 43 42 42 41 40 38 37 36 36 34
30 31 32 32 32 34 35 37 38 39 40 40 42 43 43 44 44 44 44 44 45 45 45 45 44 43 43 42 42 42 43 42 41 40 38 37 37 36
30 31 31 32 33 34 35 36 38 39 40 41 42 43 44 45 45 45 45 45 44 46 46 46 45 44 43 43 42 41 42 43 42 41 40 39 38 37
31 31 31 32 33 34 35 36 37 38 40 41 42 43 44 45 46 46 46 46 45 46 46 46 47 46 45 44 43 43 42 43 43 43 41 40 39 38
31 31 31 32 32 33 34 35 36 37 39 40 41 43 44 45 45 46 47 47 47 47 47 47 47 48 47 46 45 44 43 43 43 43 42 41 40 39
31 31 31 31 32 33 33 35 36 37 38 40 41 42 44 45 46 46 47 47 48 48 49 48 48 48 48 47 46 45 45 44 43 43 42 41 41 40
31 31 31 32 32 33 33 33 35 36 37 39 40 41 43 45 46 47 47 48 48 49 49 48 49 49 49 48 48 48 47 45 44 44 43 42 42 41
31 31 31 31 32 32 32 32 33 34 36 37 38 40 42 44 45 46 47 48 48 49 50 49 49 49 49 49 48 48 48 47 46 46 45 44 44 42
31 31 31 31 31 31 31 31 32 33 34 35 36 38 40 42 44 45 46 47 48 49 49 49 49 49 50 49 49 49 49 48 47 47 47 46 46 44
32 32 32 31 30 29 29 29 29 30 32 33 35 36 39 41 43 44 45 46 46 47 49 49 49 49 50 51 50 50 49 49 48 48 47 47 47 46
31 31 31 30 29 28 27 27 27 28 29 31 33 35 37 39 41 43 44 45 46 47 48 48 48 49 49 49 50 50 50 50 49 48 47 48 48 48
31 31 30 30 28 27 26 26 26 26 27 28 30 32 34 37 40 41 42 42 44 46 47 48 47 48 48 48 49 50 50 49 49 48 48 48 49 49
31 31 30 29 27 26 25 25 24 24 25 26 26 28 30 33 37 39 40 40 42 44 45 46 46 47 47 46 47 48 49 49 49 48 49 49 49 50
31 30 29 28 26 25 24 24 23 22 23 23 24 25 27 29 33 36 38 39 40 42 44 45 45 46 46 45 45 47 48 48 48 48 49 50 51 50
31 30 29 27 26 24 23 22 21 21 21 21 21 22 23 26 29 33 36 37 39 41 42 45 46 46 45 45 44 44 45 46 47 47 48 51 52 51
30 29 28 26 24 23 22 21 19 19 19 19 19 20 21 23 26 30 32 35 37 39 41 42 45 46 45 44 43 43 44 45 46 46 47 49 51 51
29 28 26 25 23 23 21 20 19 18 17 17 18 19 20 22 23 25 28 32 35 38 39 40 42 44 44 43 42 43 43 42 43 45 46 47 48 49
29 27 25 24 23 22 20 19 18 16 16 16 16 18 19 20 22 23 25 28 31 35 37 38 40 42 43 43 42 41 42 41 42 43 44 46 46 48
28 26 25 24 23 21 20 18 16 15 14 14 14 16 17 18 20 22 24 26 28 31 34 36 38 40 42 42 41 41 40 40 41 41 42 44 45 46
26 26 24 23 22 20 18 17 15 13 13 13 13 14 16 17 20 22 24 25 27 30 32 35 37 38 39 40 40 40 40 40 40 39 40 42 43 44
25 25 23 21 20 18 17 16 14 13 12 12 12 13 14 17 18 20 23 25 27 29 31 33 35 36 37 38 39 38 38 38 39 40 40 41 41 42
Wind_Direction
282 279 276 272 269 265 261 256 252 248 247 245 243 241 238 238 237 236 235 233 234 233 233 231 232 232 233 233 231 231 232 232 232 233 233 233 234 236
284 280 277 274 270 266 262 258 253 249 247 245 244 242 239 238 237 235 236 234 233 233 233 232 232 233 233 232 231 231 231 231 231 232 232 233 233 234
287 283 279 275 271 268 264 259 255 251 247 245 244 243 241 239 237 235 235 235 233 234 233 232 233 234 233 232 231 231 230 230 230 230 231 232 232 233
290 286 281 277 273 269 265 261 257 253 248 245 244 243 242 240 237 235 235 235 235 235 234 232 232 233 233 231 231 230 229 228 228 229 230 231 232 233
293 288 283 278 274 270 266 262 257 254 250 247 245 243 242 241 239 237 236 235 235 235 234 233 232 232 231 230 230 229 229 228 228 229 229 230 231 232
295 291 285 281 277 272 268 263 259 256 252 249 246 244 242 240 239 238 236 235 234 233 233 233 232 231 231 231 229 228 228 227 228 228 229 230 230 230
298 294 290 284 280 275 270 265 261 258 254 250 247 244 242 240 239 238 237 236 234 233 233 233 232 231 230 230 229 228 228 227 227 228 229 229 229 228
302 298 294 289 283 279 273 267 262 259 256 252 248 245 242 240 239 238 237 236 235 233 232 231 232 231 229 229 229 228 227 226 227 227 228 228 228 228
306 302 298 292 287 282 277 270 264 260 257 254 250 246 243 240 239 238 237 235 234 233 232 231 232 230 228 227 228 227 227 227 226 227 227 227 227 227
309 306 302 297 292 285 279 272 266 262 258 255 251 247 243 240 238 237 236 235 233 232 232 231 231 229 228 227 226 226 226 227 227 226 226 226 226 226
312 309 306 301 296 289 283 276 268 263 259 256 252 247 244 241 238 237 235 234 233 232 231 230 229 228 227 226 225 226 225 226 226 227 227 226 225 226
312 310 307 304 299 293 287 280 272 264 260 256 252 247 244 242 239 237 234 233 231 230 230 228 227 227 226 225 225 225 225 225 226 226 226 224 224 225
314 312 309 306 302 296 289 283 276 267 261 258 254 249 245 242 239 236 234 232 231 229 228 227 226 226 225 224 224 225 224 225 225 226 225 225 224 224
317 315 312 309 304 298 292 286 280 272 265 260 256 250 245 241 238 235 232 230 229 228 227 226 225 225 225 224 224 224 224 225 225 225 225 225 224 224
318 317 315 311 306 301 295 289 283 276 268 262 257 251 246 241 236 232 230 228 226 225 224 224 224 224 223 222 222 223 224 223 224 224 224 223 223 223
319 318 317 313 308 303 298 293 285 278 272 266 259 252 245 239 234 230 227 226 225 223 222 222 222 221 221 221 221 222 223 223 223 224 223 222 222 221
319 318 317 315 311 306 302 297 288 280 274 268 260 253 244 237 234 231 228 226 224 221 220 220 220 219 219 219 220 220 222 222 222 223 223 222 221 220
320 319 317 315 312 308 303 300 291 284 276 268 259 253 246 240 235 230 227 224 221 220 219 219 218 218 218 219 219 219 219 220 222 222 221 220 218 218
320 319 317 315 312 310 305 301 295 286 277 268 258 251 246 241 237 231 227 221 220 219 218 217 217 216 216 215 217 219 218 218 220 222 221 220 220 219
320 319 317 316 314 312 309 303 295 287 278 268 258 249 244 240 235 229 224 222 220 218 217 216 215 214 214 214 215 217 217 217 218 220 219 217 218 219
319 319 316 315 314 313 311 306 297 287 277 267 257 247 242 238 232 226 222 219 218 216 215 215 214 214 214 214 215 216 217 217 217 218 217 217 219 220
319 318 316 313 313 313 312 308 299 287 277 268 259 250 243 235 228 225 222 219 216 214 213 213 213 213 212 212 213 214 215 216 216 217 218 219 220 220
316 318 316 313 312 312 311 309 302 289 278 271 263 252 241 233 228 224 220 218 216 214 213 214 213 213 212 211 211 213 214 215 216 215 216 217 218 218
Height
5777 5776 5775 5774 5773 5774 5775 5776 5778 5780 5782 5784 5786 5789 5792 5796 5800 5804 5807 5811 5815 5819 5823 5828 5832 5837 5841 5845 5850 5855 5859 5864 5868 5872 5876 5879 5883 5886
5768 5766 5765 5764 5763 5763 5764 5765 5767 5769 5771 5773 5775 5778 5781 5785 5789 5793 5797 5801 5805 5809 5814 5819 5823 5828 5832 5837 5841 5846 5851 5855 5860 5864 5868 5872 5876 5880
5759 5757 5755 5754 5753 5752 5753 5753 5755 5757 5760 5762 5764 5767 5770 5775 5779 5783 5787 5791 5795 5799 5804 5809 5813 5818 5822 5827 5832 5837 5842 5847 5852 5856 5861 5865 5869 5873
5749 5747 5745 5743 5742 5742 5742 5742 5743 5745 5748 5751 5753 5755 5759 5763 5767 5771 5776 5780 5784 5788 5793 5798 5803 5808 5812 5817 5822 5827 5833 5838 5843 5848 5853 5857 5862 5866
5740 5737 5735 5733 5732 5731 5730 5731 5731 5733 5735 5738 5741 5743 5746 5750 5755 5759 5764 5769 5773 5777 5782 5787 5792 5797 5802 5808 5813 5818 5823 5829 5834 5839 5844 5849 5853 5858
5730 5727 5724 5722 5721 5720 5719 5719 5719 5720 5722 5725 5728 5731 5734 5737 5742 5747 5752 5757 5761 5766 5771 5776 5781 5787 5792 5798 5803 5809 5814 5819 5825 5830 5835 5840 5845 5850
5720 5717 5714 5712 5710 5708 5707 5707 5707 5708 5709 5712 5715 5718 5722 5725 5729 5734 5739 5744 5749 5754 5759 5765 5770 5776 5781 5787 5793 5799 5804 5810 5815 5821 5826 5831 5837 5842
5711 5707 5704 5701 5699 5697 5695 5695 5695 5696 5697 5698 5701 5705 5708 5712 5716 5720 5726 5732 5738 5743 5747 5753 5758 5765 5770 5777 5782 5788 5794 5800 5806 5811 5817 5822 5828 5833
5702 5698 5694 5690 5688 5685 5684 5683 5683 5683 5684 5686 5688 5691 5695 5699 5703 5708 5712 5718 5725 5730 5735 5742 5747 5753 5759 5765 5771 5777 5784 5790 5796 5801 5807 5813 5819 5824
5693 5688 5684 5680 5677 5674 5672 5671 5670 5671 5671 5673 5676 5678 5681 5685 5689 5694 5699 5705 5711 5717 5722 5730 5735 5741 5747 5753 5760 5767 5773 5780 5786 5792 5798 5804 5810 5815
5684 5679 5675 5671 5667 5663 5661 5660 5659 5659 5659 5661 5663 5665 5668 5672 5676 5681 5686 5692 5698 5704 5709 5717 5723 5729 5735 5742 5748 5755 5762 5769 5775 5782 5788 5794 5800 5806
5676 5671 5666 5662 5657 5654 5651 5649 5648 5647 5648 5649 5651 5653 5656 5659 5663 5668 5673 5678 5684 5691 5697 5704 5710 5716 5723 5730 5737 5744 5751 5758 5764 5771 5777 5784 5790 5796
5669 5663 5658 5653 5649 5645 5642 5640 5638 5637 5637 5638 5639 5641 5643 5646 5650 5655 5660 5665 5672 5679 5684 5691 5698 5704 5711 5719 5726 5733 5740 5747 5753 5760 5766 5773 5780 5787
5661 5655 5650 5645 5640 5637 5633 5631 5629 5628 5628 5628 5628 5629 5631 5634 5637 5642 5647 5653 5660 5666 5672 5679 5686 5693 5701 5708 5715 5722 5728 5736 5743 5749 5756 5762 5769 5776
5654 5648 5642 5637 5633 5629 5625 5622 5620 5619 5618 5618 5618 5619 5620 5623 5626 5631 5636 5642 5648 5655 5661 5668 5676 5683 5690 5697 5704 5710 5717 5725 5732 5739 5745 5752 5759 5766
5646 5641 5635 5630 5625 5621 5618 5615 5612 5611 5609 5609 5609 5610 5611 5613 5616 5620 5625 5631 5638 5644 5651 5657 5665 5672 5680 5687 5693 5700 5707 5714 5721 5728 5735 5742 5749 5756
5639 5634 5628 5623 5618 5614 5611 5607 5605 5603 5602 5602 5602 5602 5603 5605 5608 5611 5616 5621 5628 5634 5640 5647 5654 5662 5669 5676 5684 5690 5697 5704 5711 5718 5725 5732 5739 5746
5632 5627 5622 5617 5612 5608 5605 5601 5599 5597 5595 5595 5595 5595 5597 5599 5601 5604 5608 5613 5618 5625 5631 5638 5645 5652 5660 5667 5675 5682 5688 5695 5701 5708 5715 5722 5729 5736
5626 5621 5616 5611 5607 5603 5599 5596 5593 5591 5589 5589 5589 5589 5590 5592 5594 5597 5600 5605 5610 5616 5623 5629 5636 5643 5651 5660 5667 5673 5679 5686 5692 5699 5705 5713 5720 5726
5620 5615 5610 5605 5601 5597 5594 5591 5588 5586 5584 5583 5583 5584 5585 5586 5589 5591 5594 5599 5603 5609 5615 5621 5629 5636 5643 5651 5657 5664 5670 5677 5683 5690 5696 5703 5709 5716
5613 5609 5604 5600 5596 5592 5589 5585 5583 5581 5579 5579 5578 5579 5580 5581 5583 5586 5589 5593 5597 5603 5609 5615 5622 5628 5635 5642 5649 5656 5662 5669 5675 5682 5688 5694 5701 5707
5607 5603 5598 5594 5591 5587 5584 5581 5578 5576 5575 5574 5574 5574 5575 5576 5578 5581 5584 5588 5592 5597 5603 5608 5614 5620 5627 5635 5642 5648 5654 5661 5667 5673 5680 5687 5693 5700
5602 5598 5593 5589 5586 5583 5580 5577 5574 5572 5571 5571 5570 5570 5571 5572 5573 5576 5579 5583 5587 5592 5597 5602 5608 5614 5621 5627 5634 5641 5647 5653 5659 5666 5672 5678 5684 5690